Regional Weather Roundup
Issued by NWS

Home | Current Version | Previous Version | Text Only | Print | Product List | Glossary Off
Versions: 1 2 3 4 5 6 7 8 9 10 11 12 13 14 15 16 17 18 19 20 21 22 23 24 25 26 27 28 29 30 31 32 33 34 35 36 37 38 39 40 41 42 43 44 45 46 47 48 49 50

000
ASUS43 KLOT 251408
RWRIL

ILLINOIS REGIONAL WEATHER ROUNDUP
NATIONAL WEATHER SERVICE CHICAGO/ROMEOVILLE IL
900 AM CDT WED MAY 25 2016

NOTE: "FAIR" INDICATES FEW OR NO CLOUDS BELOW 12,000 FEET WITH NO
SIGNIFICANT WEATHER AND/OR OBSTRUCTIONS TO VISIBILITY.

* THESE STATIONS ARE NOT UNDER NWS QUALITY CONTROL. THEY ALSO MAY NOT
  REPORT WEATHER SUCH AS PRECIPITATION OR FOG.

ILZ001-002-007-009-015-016-024-251500-
NORTHWEST ILLINOIS

CITY           SKY/WX    TMP DP  RH WIND       PRES   REMARKS
MOLINE         CLOUDY    71  62  73 S12       29.95S
STERLING*      CLOUDY    75  63  66 S7        29.98F
SAVANNA*       CLOUDY    73  65  76 S9        29.97R
$$

ILZ003-004-008-010-011-017-018-251500-
NORTH CENTRAL ILLINOIS

CITY           SKY/WX    TMP DP  RH WIND       PRES   REMARKS
ROCKFORD       CLOUDY    75  65  70 S9        29.99F
FREEPORT*      CLOUDY    73  65  74 S9        30.00S
ROCHELLE*      PTSUNNY   74  63  69 S8        30.00F
DE KALB*       MOSUNNY   74  66  77 S10       30.01F
$$

ILZ005-006-012>014-019>023-251500-
NORTHEAST ILLINOIS

CITY           SKY/WX    TMP DP  RH WIND       PRES   REMARKS
CHICAGO-OHARE  PTSUNNY   76  64  66 S8        30.01S
CHICAGO-MIDWAY PTSUNNY   77  63  61 SW9       30.02S
AURORA         MOSUNNY   75  65  70 S8        30.02S
LANSING*       SUNNY     74  62  66 S9        30.04S
JOLIET*        CLOUDY    73  65  75 S9        30.03S
WAUKEGAN       CLOUDY    76  65  68 SW5       30.00F
DUPAGE AIRPORT CLOUDY    74  64  71 S9        30.01F
KANKAKEE*      CLOUDY   N/A N/A N/A SW7       30.05F
WHEELING       SUNNY     76  64  66 S8        30.02S
MORRIS*        SUNNY     73  63  71 S8        30.01F
ROMEOVILLE*    PTSUNNY   71  61  70 S9        30.03S
NORTHERLY ISL    N/A     75  62  64 S6          N/A
NORTHERLY ISL    N/A     75  62  64 S6          N/A
$$

LMZ740>746-251500-
SOUTHERN LAKE MICHIGAN

STATION/POSITION SKY/WX   TEMP    WIND        PRES    VSBY  WAVE
                          AIR SEA DIR/SP/G                  HT/PER
                          (F)     (DEG/KT/KT) (MB)    (MI)  (FT/S)
SOUTHERN BUOY              53 49  170/  8/  8 1016.6R         1
WILMETTE HARBOR            61 57  170/  6/  8   N/A           1
HARRISON CRIB              71     190/ 12/ 12   N/A
BURNHAM HARBOR             77     190/  7/  9   N/A
CALUMET HARBOR             72     200/  6/  8 1016.1R
BURNS HARBOR               72     180/  8/ 11 1017.6R
MICHIGAN CITY              71     160/  8/ 10   N/A
MICHIGAN CITY 6N           67 58  190/  4/  4   N/A           0
ST. JOSEPH                 64 59  170/  2/  2   N/A           1
$$

ILZ025>027-034>036-040-047-049-050-058-095>099-251500-
WEST-CENTRAL ILLINOIS

CITY           SKY/WX    TMP DP  RH WIND       PRES   REMARKS
QUINCY         PTSUNNY   69  63  81 S9        29.96F
GALESBURG*     CLOUDY    69  62  80 SE9       29.97F
MACOMB*        MOSUNNY   70  63  80 S10       30.00F
JACKSONVILLE*  MOSUNNY   72  62  71 S13       29.99S
PITTSFIELD*    PTSUNNY   69  63  83 S6        29.99F
$$

ILZ028>032-037-038-041>044-048-051>054-059>061-251500-
CENTRAL ILLINOIS

CITY           SKY/WX    TMP DP  RH WIND       PRES   REMARKS
PONTIAC        SUNNY     74  64  73 S9        30.03F
BLOOMINGTON    SUNNY     72  64  75 S12       30.03F
DECATUR        MOSUNNY   75  62  64 S7        30.02F
PEORIA         PTSUNNY   71  62  73 S13       30.00S
LACON*         MOSUNNY   72  62  71 S8        29.99F
LINCOLN*       MOSUNNY   73  65  75 S7        30.01S
SPRINGFIELD    MOSUNNY   74  62  66 S10       30.01S
TAYLORVILLE    CLOUDY    73  62  69 S10       30.02S
$$

ILZ033-039-045-046-055>057-062-063-251500-
EAST-CENTRAL ILLINOIS

CITY           SKY/WX    TMP DP  RH WIND       PRES   REMARKS
CHAMPAIGN      SUNNY     74  61  63 S9        30.04F
RANTOUL*       SUNNY     75  63  66 SW7       30.05F
MATTOON        MOSUNNY   73  61  65 S10       30.04F
PARIS*         CLOUDY    73  62  67 S7        30.07F
$$

ILZ079-100>102-251500-
SOUTHWEST ILLINOIS

CITY           SKY/WX    TMP DP  RH WIND       PRES   REMARKS
ALTON          MOSUNNY   70  63  78 S9        30.02S
BELLEVILLE     PTSUNNY   71  68  91 VRB2      30.01S
CAHOKIA*       PTSUNNY   71  61  70 VRB3      30.01S
SPARTA*        CLOUDY    68  64  86 S7        30.05R
$$

ILZ064>066-069>071-074>076-080>082-084>086-088>090-092>094-251500-
SOUTH-CENTRAL ILLINOIS

CITY           SKY/WX    TMP DP  RH WIND       PRES   REMARKS
CARBONDALE     CLOUDY    69  63  81 S7        30.06S
CAIRO*         TSTM      65  65  97 SE7       30.08S
EFFINGHAM*     CLOUDY    73  66  78 S6        30.06F
MARION         CLOUDY    68  66  94 SE8       30.07F THUNDER
MT. VERNON     CLOUDY    68  63  83 S7        30.08S THUNDER
CENTRALIA*     CLOUDY    69  66  90 SE9       30.04F
SALEM*         PTSUNNY   72  64  76 S9G18     30.05F
METROPOLIS*    RAIN      69  68  96 CALM      30.12R
$$

ILZ067-068-072-073-078-083-087-091-251500-
SOUTHEAST ILLINOIS

CITY           SKY/WX    TMP DP  RH WIND       PRES   REMARKS
LAWRENCEVILLE  CLOUDY    73  63  70 S6        30.08S
FLORA*         PTSUNNY   73  65  76 S13       30.07S
FAIRFIELD*     MOSUNNY   71  64  76 S8        30.07F
HARRISBURG*    CLOUDY    70  65  83 CALM      30.09S
ROBINSON*      MOSUNNY   73  64  73 S6        30.09S
CARMI*         CLOUDY    71  65  84 S8        30.08S
$$

ABBREVIATIONS USED IN REMARKS
   TC - TEMPERATURE IN CELSIUS
  WCI - WIND CHILL INDEX
   HX - HEAT INDEX
  VSB - VISIBILITY
$$





USA.gov is the U.S. government's official web portal to all federal, state and local government web resources and services.